Flag for Slovenia Weather past 2 weeks in Kranj, Slovenia

Now
55 °F

Passing clouds.


Feels Like: 55 °F
Forecast: 52 / 66 °F
Wind: 1 mph from North

Location: Ljubljana Airport / Brnik

Current Time: Apr 27, 2015 at 12:03:20 AM

Latest Report: Apr 26, 2015 at 11:00 PM


Visibility: N/A

Pressure: 29.89 "Hg

Humidity: 77%

Dew point: 48 °F

Location of KranjLocation

Historic Weather in Kranj — Graph

°F

Kranj temperature yesterday

Maximum temperature yesterday: 66 °F (at 2:00 PM)
Minimum temperature yesterday: 41 °F (at 6:00 AM)
Average temperature yesterday: 56 °F

Past Weeks' High & Low Weather Summary

 TemperatureHumidityPressure
High75 °F (Apr 13, 3:30 PM)100% (Apr 18, 3:00 AM)30.42 "Hg (Apr 18, 3:00 AM)
Low28 °F (Apr 20, 6:30 AM)15% (Apr 21, 3:30 PM)29.86 "Hg (Apr 26, 4:30 PM)
Average53 °F65%30.11 "Hg
* Reported Apr 11 10:00 PM — Apr 26 10:30 PM, Kranj, Weather by CustomWeather, © 2015

Note: Actual official high and low records may vary slightly from our data, if they occured in-between our weather recording intervals... More about our weather records

Advertising

Kranj weather history for previous 24 hours

 ConditionsComfort  
Time TempWeatherWind HumidityBarometerVisibility
10:30 PM
Sun, Apr 26
57 °FPassing clouds.1 mph72%29.89 "HgN/A
10:00 PM57 °FPassing clouds.3 mph72%29.86 "HgN/A
9:30 PM57 °FPassing clouds.6 mph67%29.86 "HgN/A
9:00 PM57 °FPartly sunny.5 mph67%29.86 "HgN/A
8:30 PM59 °FPartly sunny.5 mph63%29.86 "HgN/A
8:00 PM61 °FBroken clouds.7 mph59%29.86 "HgN/A
7:30 PM61 °FBroken clouds.9 mph59%29.86 "HgN/A
7:00 PM63 °FBroken clouds.9 mph56%29.86 "HgN/A
6:30 PM64 °FScattered clouds.9 mph52%29.86 "HgN/A
6:00 PM64 °FScattered clouds.12 mph52%29.86 "HgN/A
5:30 PM64 °FScattered clouds.10 mph49%29.86 "HgN/A
5:00 PM64 °FScattered clouds.12 mph49%29.86 "HgN/A
4:30 PM64 °FScattered clouds.13 mph52%29.86 "HgN/A
4:00 PM64 °FScattered clouds.12 mph52%29.89 "HgN/A
3:30 PM64 °FScattered clouds.13 mph52%29.89 "HgN/A
3:00 PM66 °FScattered clouds.8 mph52%29.89 "HgN/A
2:30 PM66 °FScattered clouds.10 mph52%29.89 "HgN/A
2:00 PM66 °FScattered clouds.9 mph52%29.89 "HgN/A
1:30 PM64 °FScattered clouds.12 mph52%29.89 "HgN/A
1:00 PM64 °FScattered clouds.12 mph52%29.92 "HgN/A
12:30 PM64 °FScattered clouds.9 mph56%29.92 "HgN/A
12:00 PM63 °FScattered clouds.10 mph56%29.92 "HgN/A
11:30 AM64 °FScattered clouds.8 mph56%29.92 "HgN/A
11:00 AM63 °FPassing clouds.9 mph56%29.92 "HgN/A
10:30 AM61 °FPassing clouds.9 mph59%29.92 "HgN/A
10:00 AM59 °FPassing clouds.3 mph63%29.92 "HgN/A
9:30 AM57 °FPassing clouds.2 mph67%29.92 "HgN/A
9:00 AM57 °FPassing clouds.1 mph67%29.92 "HgN/A
8:30 AM54 °FPassing clouds.1 mph77%29.92 "HgN/A
8:00 AM52 °FPassing clouds.1 mph82%29.92 "HgN/A
7:30 AM48 °FPassing clouds.No wind87%29.92 "HgN/A
7:00 AM45 °FPassing clouds.1 mph93%29.92 "HgN/A
6:30 AM41 °FPassing clouds.No wind93%29.92 "HgN/A
6:00 AM41 °FPassing clouds.1 mph100%29.92 "HgN/A
5:30 AM43 °FPassing clouds.1 mph93%29.92 "HgN/A
5:00 AM45 °FPassing clouds.5 mph87%29.92 "HgN/A
4:30 AM43 °FPassing clouds.No wind93%29.95 "HgN/A
4:00 AM43 °FPassing clouds.No wind93%29.95 "HgN/A
3:30 AM45 °FPassing clouds.No wind87%29.95 "HgN/A
3:00 AM45 °FPassing clouds.No wind87%29.95 "HgN/A
2:30 AM48 °FPassing clouds.No wind82%29.95 "HgN/A
2:00 AM48 °FPassing clouds.No wind82%29.95 "HgN/A
1:30 AM54 °FPassing clouds.3 mph67%29.95 "HgN/A
1:00 AM54 °FPassing clouds.3 mph67%29.95 "HgN/A
12:30 AM54 °FPassing clouds.5 mph67%29.95 "HgN/A
12:00 AM54 °FPassing clouds.5 mph67%29.95 "HgN/A
Weather by CustomWeather, © 2015

See weather overviewHow to use our weather pages